User: anonymous   Login
Location: Arrakis Observatory
(44.1122°N, 95.7153°W)
Time: 09:20:11
(UTC-06:00)
Language:

Iridium 35 - Orbit

View from above orbital plane
View from above orbital plane
View from above satellite
View from above satellite

Ground track
Ground track

The orbit data is extracted from the following two-line orbital elements,

1 24966U 97056B   18015.71972084 -.00000039 +00000-0 -21117-4 0  9997
2 24966 086.3956 229.8277 0001922 084.9747 275.1668 14.34219642062713
Epoch (UTC): 15 January 2018 17:16:23
Eccentricity: 0.0001922
inclination: 86.3956°
perigee height: 776 km
apogee height: 779 km
right ascension of ascending node: 229.8277°
argument of perigee: 84.9747°
revolutions per day: 14.34219642
mean anomaly at epoch: 275.1668°
orbit number at epoch: 6271

The dashed part of the orbit path shows where the satellite is in the earth's shadow,  

DLR